FW9594 Weather Reports


Display with metric or nautical units.
time (UTC)temp
F
wind
direction
speed
MPH
gust
MPH
rain 1hr
in
rain 24hr
in
rain mn
in
humidity
%
barometer
mb
20260510213701 67 61 5.0 11.0 0.00 0.16 0.16 86 1017.0
20260510212702 67 51 4.0 13.0 0.07 0.16 0.16 86 1017.1
20260510211701 67 13 4.0 14.0 0.07 0.16 0.16 86 1017.3
20260510211137 67 34 9.0 18.0 0.08 0.16 0.16 86 1017.0
20260510205701 67 38 7.0 14.0 0.09 0.07 0.16 87 1016.8
20260510204702 67 44 9.0 15.0 0.10 0.07 0.16 87 1017.0
20260510203701 67 47 6.0 13.0 0.10 0.07 0.16 87 1017.4
20260510202702 67 28 4.0 13.0 0.03 0.07 0.09 86 1017.4
20260510201701 68 17 8.0 12.0 0.03 0.07 0.09 85 1017.0
20260510200701 69 41 6.0 15.0 0.02 0.07 0.08 82 1016.6
20260510195702 69 96 3.0 6.0 0.01 0.06 0.07 81 1016.5
20260510195136 69 58 1.0 4.0 0.00 0.06 0.06 81 1016.6
20260510194140 69 45 2.0 12.0 0.00 0.06 0.06 80 1016.8
20260510192701 69 45 4.0 5.0 0.00 0.06 0.06 78 1016.7
20260510191701 70 37 3.0 6.0 0.00 0.06 0.06 79 1016.8
20260510190701 70 58 3.0 5.0 0.00 0.06 0.06 80 1016.5
20260510185701 70 66 1.0 3.0 0.00 0.06 0.06 79 1016.4
20260510184701 70 94 1.0 4.0 0.00 0.06 0.06 78 1016.2
20260510183702 69 56 1.0 3.0 0.00 0.06 0.06 79 1016.1
20260510182701 69 116 2.0 6.0 0.00 0.06 0.06 79 1016.0
20260510181702 69 85 3.0 7.0 0.01 0.06 0.06 79 1015.9
20260510181135 69 128 2.0 9.0 0.02 0.06 0.06 82 1015.9
20260510175701 68 178 3.0 11.0 0.06 0.00 0.06 84 1015.9
20260510174701 67 99 3.0 12.0 0.06 0.00 0.06 87 1015.7
20260510174154 66 44 4.0 9.0 0.06 0.00 0.06 90 1015.9
20260510173141 65 35 2.0 11.0 0.06 0.00 0.06 89 1016.1
20260510171702 65 89 2.0 9.0 0.05 0.00 0.05 89 1016.1
20260510170701 65 78 5.0 12.0 0.04 0.00 0.03 87 1016.4
20260510165701 65 58 11.0 18.0 0.00 0.00 0.00 83 1016.7
20260510164702 66 14 10.0 23.0 0.00 0.00 0.00 80 1016.7
20260510163701 67 45 16.0 26.0 0.00 0.00 0.00 76 1016.7
20260510163149 70 42 16.0 23.0 0.00 0.00 0.00 72 1016.3
20260510161701 78 49 3.0 11.0 0.00 0.00 0.00 65 1015.5
20260510161103 79 282 2.0 5.0 0.00 0.00 0.00 62 1013.9
20260510160834 78 209 1.0 4.0 0.00 0.00 0.00 64 1014.3
20260510154656 78 164 2.0 6.0 0.00 0.00 0.00 62 1013.2
20260510153653 78 307 2.0 10.0 0.00 0.00 0.00 64 1012.7
20260510152654 77 235 1.0 5.0 0.00 0.00 0.00 66 1012.5
20260510151652 76 288 2.0 6.0 0.00 0.00 0.00 64 1012.7
20260510150649 76 179 2.0 5.0 0.00 0.00 0.00 65 1012.6
20260510145650 74 204 1.0 4.0 0.00 0.00 0.00 67 1012.8
20260510144648 74 164 2.0 4.0 0.00 0.00 0.00 69 1012.6
20260510143645 72 172 2.0 7.0 0.00 0.00 0.00 70 1012.9
20260510142643 71 197 2.0 4.0 0.00 0.00 0.00 71 1013.3
20260510141645 71 123 2.0 5.0 0.00 0.00 0.00 72 1013.3
20260510140643 71 254 0.0 4.0 0.00 0.00 0.00 73 1013.7
20260510135642 71 226 1.0 3.0 0.00 0.00 0.00 74 1013.8
20260510134641 71 259 1.0 4.0 0.00 0.00 0.00 74 1013.8
20260510133639 70 154 0.0 3.0 0.00 0.00 0.00 75 1013.9
20260510132639 69 157 0.0 3.0 0.00 0.00 0.00 76 1014.0
20260510131636 69 161 0.0 2.0 0.00 0.00 0.00 76 1014.2
20260510130635 69 293 0.0 2.0 0.00 0.00 0.00 76 1014.1
20260510125635 69 159 0.0 3.0 0.00 0.00 0.00 77 1013.8
20260510124632 69 89 0.0 2.0 0.00 0.00 0.00 77 1013.5
20260510123630 69 111 1.0 3.0 0.00 0.00 0.00 77 1013.3
20260510122630 68 171 0.0 2.0 0.00 0.00 0.00 78 1013.3
20260510121629 68 111 0.0 2.0 0.00 0.00 0.00 78 1013.2
20260510120629 68 251 0.0 3.0 0.00 0.00 0.00 78 1013.2
20260510115628 68 85 0.0 2.0 0.00 0.00 0.00 79 1013.0
20260510114627 67 164 0.0 2.0 0.00 0.00 0.00 79 1012.8
20260510114107 67 113 0.0 3.0 0.00 0.00 0.00 79 1012.9
20260510112625 67 243 0.0 2.0 0.00 0.00 0.00 79 1012.8
20260510111624 68 190 0.0 3.0 0.00 0.00 0.00 78 1012.7
20260510110625 68 131 0.0 1.0 0.00 0.00 0.00 78 1012.9
20260510105625 68 117 0.0 3.0 0.00 0.00 0.00 77 1012.9
20260510104626 68 118 1.0 5.0 0.00 0.00 0.00 77 1012.6
20260510103624 68 154 2.0 4.0 0.00 0.00 0.00 77 1012.4
20260510102625 68 169 1.0 5.0 0.00 0.00 0.00 77 1012.5
20260510101624 68 120 3.0 10.0 0.00 0.00 0.00 75 1012.5
20260510100624 69 100 2.0 9.0 0.00 0.00 0.00 74 1012.7
20260510095624 69 87 4.0 7.0 0.00 0.00 0.00 73 1012.8
20260510094626 70 63 5.0 12.0 0.00 0.00 0.00 73 1012.6
20260510093625 70 127 2.0 9.0 0.00 0.00 0.00 75 1012.4
20260510092625 70 107 3.0 9.0 0.00 0.00 0.00 75 1012.0
20260510091624 70 123 5.0 13.0 0.00 0.00 0.00 76 1011.9
20260510090624 71 62 7.0 15.0 0.00 0.00 0.00 76 1011.8
20260510085626 72 75 6.0 12.0 0.00 0.00 0.00 75 1011.8
20260510084627 73 21 4.0 12.0 0.00 0.00 0.00 79 1011.5
20260510083627 74 69 7.0 16.0 0.00 0.00 0.00 81 1011.3
20260510082626 74 348 5.0 7.0 0.00 0.00 0.00 82 1011.1
20260510082550 74 56 2.0 11.0 0.00 0.00 0.00 82 1010.9
20260510080626 74 38 6.0 11.0 0.00 0.00 0.00 82 1011.5
20260510075626 73 44 4.0 6.0 0.00 0.00 0.00 82 1011.0
20260510075116 73 176 0.0 0.0 0.00 0.00 0.00 81 1010.2
20260510073625 74 176 0.0 0.0 0.00 0.00 0.00 80 1009.8
20260510073101 74 176 0.0 0.0 0.00 0.00 0.00 79 1009.8
20260510071626 75 176 0.0 1.0 0.00 0.00 0.00 78 1009.5
20260510070626 75 124 0.0 0.0 0.00 0.00 0.00 77 1009.2
20260510070103 75 135 0.0 3.0 0.00 0.00 0.00 76 1009.3
20260510064626 76 144 0.0 3.0 0.00 0.00 0.00 75 1008.9
20260510064549 76 104 1.0 6.0 0.00 0.00 0.00 74 1009.8
20260510062626 76 76 4.0 14.0 0.00 0.00 0.00 74 1010.4
20260510061626 76 28 4.0 12.0 0.00 0.00 0.00 73 1011.2
20260510061107 76 56 13.0 20.0 0.00 0.00 0.00 71 1011.6
20260510060106 76 39 9.0 13.0 0.00 0.00 0.00 70 1011.2
20260510055107 75 45 5.0 7.0 0.00 0.00 0.00 72 1009.6
20260510053626 75 200 0.0 0.0 0.00 0.00 0.00 69 1008.5
20260510052625 75 200 0.0 1.0 0.00 0.00 0.00 69 1008.2
20260510051625 75 171 0.0 1.0 0.00 0.00 0.00 68 1008.3
20260510050626 76 176 0.0 2.0 0.00 0.00 0.00 68 1008.2
20260510045626 76 107 0.0 2.0 0.00 0.00 0.00 67 1008.1
20260510044625 76 131 0.0 2.0 0.00 0.00 0.00 67 1007.7
20260510043626 76 213 0.0 1.0 0.00 0.00 0.00 67 1007.6
20260510042625 76 111 0.0 3.0 0.00 0.00 0.00 67 1007.7
20260510041629 76 276 0.0 0.0 0.00 0.00 0.00 67 1007.8
20260510040626 76 209 0.0 1.0 0.00 0.00 0.00 66 1007.9
20260510035625 76 113 0.0 0.0 0.00 0.00 0.00 66 1008.0
20260510034625 76 120 0.0 2.0 0.00 0.00 0.00 65 1008.1
20260510033625 76 235 0.0 0.0 0.00 0.00 0.00 65 1007.9
20260510032626 77 113 0.0 0.0 0.00 0.00 0.00 64 1008.1
20260510031625 78 114 0.0 0.0 0.00 0.00 0.00 62 1008.3
20260510030625 78 97 0.0 0.0 0.00 0.00 0.00 61 1008.1
20260510025627 78 116 0.0 0.0 0.00 0.00 0.00 60 1008.2
20260510025059 79 118 0.0 0.0 0.00 0.00 0.00 60 1008.1
20260510023622 79 106 0.0 0.0 0.00 0.00 0.00 58 1008.1
20260510023057 79 102 0.0 1.0 0.00 0.00 0.00 58 1008.1
20260510021617 80 96 0.0 0.0 0.00 0.00 0.00 58 1007.9
20260510020617 80 96 0.0 0.0 0.00 0.00 0.00 57 1007.7
20260510015614 81 111 0.0 1.0 0.00 0.00 0.00 56 1007.7
20260510014613 82 99 0.0 2.0 0.00 0.00 0.00 55 1007.5
20260510014527 82 179 0.0 2.0 0.00 0.00 0.00 55 1007.6
20260510012612 83 114 0.0 2.0 0.00 0.00 0.00 55 1007.4
20260510011608 83 90 1.0 3.0 0.00 0.00 0.00 56 1007.2
20260510010609 84 87 1.0 2.0 0.00 0.00 0.00 56 1007.0
20260510005607 85 92 1.0 5.0 0.00 0.00 0.00 55 1006.9
20260510004604 86 117 2.0 5.0 0.00 0.00 0.00 54 1006.9
20260510003606 88 97 1.0 3.0 0.00 0.00 0.00 54 1006.9
20260510002602 88 94 1.0 5.0 0.00 0.00 0.00 54 1006.9
20260510001602 89 82 1.0 3.0 0.00 0.00 0.00 53 1006.9
20260510000601 89 162 2.0 3.0 0.00 0.00 0.00 52 1006.9
20260509235602 91 94 2.0 3.0 0.00 0.00 0.00 48 1007.0
20260509234601 91 272 1.0 3.0 0.00 0.00 0.00 45 1007.0
20260509233602 93 296 0.0 1.0 0.00 0.00 0.00 40 1007.0
20260509232601 91 296 1.0 3.0 0.00 0.00 0.00 43 1007.2
20260509231601 91 257 1.0 5.0 0.00 0.00 0.00 44 1007.1
20260509231042 93 276 0.0 2.0 0.00 0.00 0.00 43 1007.0
20260509225601 93 289 0.0 3.0 0.00 0.00 0.00 39 1007.0
20260509224602 93 214 0.0 3.0 0.00 0.00 0.00 44 1007.0
20260509223602 92 203 2.0 4.0 0.00 0.00 0.00 44 1007.1
20260509222602 89 179 1.0 4.0 0.00 0.00 0.00 46 1007.0
20260509221600 89 13 3.0 5.0 0.00 0.00 0.00 46 1007.1
20260509221528 90 158 0.0 6.0 0.00 0.00 0.00 45 1007.2
20260509215601 89 82 3.0 6.0 0.00 0.00 0.00 45 1007.1